User: anonymous   Login
Location: Unspecified
(0.0000°N, 0.0000°E)
Time: 03:23:54
(UTC+00:00)
Language:

STARLINK-4739 - Orbit

View from above orbital plane
View from above orbital plane
View from above satellite
View from above satellite

Ground track
Ground track

The orbit is defined by the following mean orbital elements,

1 53792U          26144.81678572 +.00000000 +00000-0 +36189-4 0 00001
2 53792  53.2157 292.7201 0001309  99.2983 260.8158 15.08839422    09
Epoch (UTC): 24 May 2026 19:36:10
Eccentricity: 0.0001309
inclination: 53.2157°
perigee height: 539 km
apogee height: 541 km
right ascension of ascending node: 292.7201°
argument of perigee: 99.2983°
revolutions per day: 15.08839422
mean anomaly at epoch: 260.8158°

The dashed part of the orbit path shows where the satellite is in the earth's shadow,  

DLR